Hourly Weather Otloczyn

Today, 23 July, Friday

Time Temperature Precipitation Wind Pressure Humidity
00:00 +18°C° 0 mm 2 mps 758 mmHg 84%
01:00 +18°C° 0 mm 1 mps 758 mmHg 88%
02:00 +18°C° 0 mm 1 mps 758 mmHg 88%
03:00 +16°C° 0 mm 2 mps 758 mmHg 88%
04:00 +16°C° 0 mm 2 mps 758 mmHg 89%
05:00 +17°C° 0 mm 2 mps 758 mmHg 84%
06:00 +18°C° 0 mm 2 mps 758 mmHg 79%
07:00 +19°C° 0 mm 2 mps 758 mmHg 74%
08:00 +21°C° 0 mm 2 mps 758 mmHg 68%
09:00 +23°C° 0 mm 2 mps 758 mmHg 63%
10:00 +24°C° 0 mm 2 mps 758 mmHg 57%
11:00 +25°C° 0 mm 2 mps 758 mmHg 55%
12:00 +25°C° 0 mm 3 mps 757 mmHg 52%
13:00 +26°C° 0 mm 3 mps 757 mmHg 50%
14:00 +26°C° 0 mm 3 mps 757 mmHg 55%
15:00 +25°C° 0 mm 3 mps 757 mmHg 59%
16:00 +24°C° 0 mm 2 mps 757 mmHg 63%
17:00 +24°C° 0 mm 2 mps 757 mmHg 66%
18:00 +23°C° 0 mm 2 mps 757 mmHg 68%
19:00 +23°C° 0 mm 2 mps 757 mmHg 71%
20:00 +22°C° 0 mm 1 mps 757 mmHg 72%
21:00 +21°C° 0 mm 1 mps 757 mmHg 74%
22:00 +20°C° 0 mm 1 mps 757 mmHg 76%
23:00 +20°C° 0 mm 1 mps 757 mmHg 76%

Tomorrow, 24 July, Saturday

Time Temperature Precipitation Wind Pressure Humidity
00:00 +20°C° 0 mm 1 mps 757 mmHg 77%
01:00 +17°C° 0 mm 0 mps 757 mmHg 78%
02:00 +17°C° 0 mm 0 mps 757 mmHg 78%
03:00 +19°C° 0 mm 1 mps 757 mmHg 79%
04:00 +19°C° 0 mm 1 mps 757 mmHg 79%
05:00 +20°C° 0 mm 1 mps 757 mmHg 77%
06:00 +20°C° 0 mm 1 mps 757 mmHg 75%
07:00 +21°C° 0 mm 1 mps 757 mmHg 73%
08:00 +22°C° 0 mm 1 mps 757 mmHg 70%
09:00 +23°C° 0 mm 1 mps 757 mmHg 67%
10:00 +24°C° 0 mm 1 mps 757 mmHg 64%
11:00 +25°C° 0 mm 1 mps 757 mmHg 60%
12:00 +26°C° 0 mm 1 mps 757 mmHg 55%
13:00 +27°C° 0 mm 1 mps 757 mmHg 50%
14:00 +26°C° 0 mm 1 mps 757 mmHg 54%
15:00 +25°C° 0 mm 2 mps 757 mmHg 58%
16:00 +24°C° 0 mm 2 mps 757 mmHg 62%
17:00 +24°C° 0 mm 1 mps 757 mmHg 63%
18:00 +24°C° 0 mm 1 mps 756 mmHg 64%
19:00 +23°C° 0 mm 1 mps 756 mmHg 65%
20:00 +23°C° 0 mm 2 mps 756 mmHg 65%
21:00 +21°C° 0 mm 2 mps 757 mmHg 66%
22:00 +21°C° 0 mm 2 mps 757 mmHg 67%
23:00 +20°C° 0 mm 2 mps 757 mmHg 68%

Day after tomorrow, 25 July, Sunday

Time Temperature Precipitation Wind Pressure Humidity
00:00 +20°C° 0 mm 2 mps 757 mmHg 69%
01:00 +19°C° 0 mm 2 mps 757 mmHg 70%
02:00 +19°C° 0 mm 2 mps 756 mmHg 71%
03:00 +18°C° 0 mm 2 mps 756 mmHg 72%
04:00 +18°C° 0 mm 2 mps 756 mmHg 74%
05:00 +19°C° 0 mm 3 mps 756 mmHg 72%
06:00 +21°C° 0 mm 3 mps 756 mmHg 69%
07:00 +22°C° 0 mm 3 mps 756 mmHg 67%
08:00 +23°C° 0 mm 4 mps 756 mmHg 62%
09:00 +26°C° 0 mm 4 mps 756 mmHg 57%
10:00 +28°C° 0 mm 5 mps 756 mmHg 53%
11:00 +29°C° 0 mm 5 mps 756 mmHg 50%
12:00 +29°C° 0 mm 4 mps 755 mmHg 47%
13:00 +30°C° 0 mm 4 mps 755 mmHg 44%
14:00 +29°C° 0 mm 4 mps 755 mmHg 49%
15:00 +28°C° 0 mm 4 mps 755 mmHg 54%
16:00 +27°C° 0 mm 3 mps 755 mmHg 59%
17:00 +26°C° 0.1 mm 3 mps 755 mmHg 64%
18:00 +24°C° 0.1 mm 3 mps 756 mmHg 68%
19:00 +22°C° 0.1 mm 3 mps 756 mmHg 73%
20:00 +23°C° 0 mm 2 mps 756 mmHg 75%
21:00 +21°C° 0 mm 2 mps 756 mmHg 78%
22:00 +21°C° 0 mm 1 mps 756 mmHg 80%
23:00 +20°C° 0.4 mm 2 mps 756 mmHg 82%

26 July, Monday

Time Temperature Precipitation Wind Pressure Humidity
00:00 +20°C° 0.4 mm 3 mps 756 mmHg 85%
01:00 +20°C° 0.4 mm 3 mps 755 mmHg 88%
02:00 +20°C° 0.1 mm 4 mps 755 mmHg 88%
03:00 +20°C° 0.1 mm 4 mps 754 mmHg 88%
04:00 +20°C° 0.1 mm 4 mps 754 mmHg 88%
05:00 +21°C° 0.1 mm 4 mps 754 mmHg 84%
06:00 +22°C° 0.1 mm 4 mps 754 mmHg 80%
07:00 +23°C° 0.1 mm 4 mps 754 mmHg 76%
08:00 +25°C° 0 mm 4 mps 754 mmHg 70%
09:00 +27°C° 0 mm 4 mps 754 mmHg 64%
10:00 +28°C° 0 mm 4 mps 753 mmHg 57%
11:00 +28°C° 0 mm 4 mps 753 mmHg 56%
12:00 +29°C° 0 mm 4 mps 753 mmHg 55%
13:00 +30°C° 0 mm 3 mps 753 mmHg 53%
14:00 +29°C° 0 mm 3 mps 753 mmHg 54%
15:00 +29°C° 0 mm 3 mps 753 mmHg 56%
16:00 +29°C° 0 mm 2 mps 753 mmHg 57%
17:00 +28°C° 0 mm 2 mps 753 mmHg 62%
18:00 +27°C° 0 mm 2 mps 753 mmHg 66%
19:00 +26°C° 0 mm 1 mps 753 mmHg 70%
20:00 +25°C° 0 mm 1 mps 753 mmHg 72%
21:00 +24°C° 0 mm 2 mps 753 mmHg 74%
22:00 +24°C° 0 mm 2 mps 753 mmHg 77%
23:00 +23°C° 0 mm 2 mps 753 mmHg 79%

27 July, Tuesday

Time Temperature Precipitation Wind Pressure Humidity
00:00 +21°C° 0 mm 2 mps 754 mmHg 82%
01:00 +21°C° 0 mm 2 mps 754 mmHg 84%
02:00 +20°C° 0.2 mm 2 mps 754 mmHg 87%
03:00 +20°C° 0.2 mm 2 mps 754 mmHg 89%
04:00 +19°C° 0.2 mm 2 mps 754 mmHg 91%
05:00 +20°C° 0.3 mm 2 mps 754 mmHg 89%
06:00 +21°C° 0.3 mm 2 mps 754 mmHg 86%
07:00 +21°C° 0.3 mm 2 mps 755 mmHg 84%
08:00 +23°C° 0 mm 2 mps 755 mmHg 78%
09:00 +24°C° 0 mm 2 mps 755 mmHg 72%
10:00 +25°C° 0 mm 2 mps 755 mmHg 66%
11:00 +27°C° 0 mm 2 mps 755 mmHg 61%
12:00 +28°C° 0 mm 2 mps 755 mmHg 55%
13:00 +29°C° 0 mm 3 mps 755 mmHg 50%
14:00 +29°C° 0 mm 3 mps 755 mmHg 52%
15:00 +29°C° 0 mm 3 mps 755 mmHg 54%
16:00 +28°C° 0 mm 3 mps 755 mmHg 55%
17:00 +27°C° 0 mm 3 mps 755 mmHg 61%
18:00 +26°C° 0 mm 3 mps 755 mmHg 66%
19:00 +25°C° 0 mm 2 mps 755 mmHg 71%
20:00 +24°C° 0 mm 2 mps 755 mmHg 72%
21:00 +23°C° 0 mm 2 mps 755 mmHg 73%
22:00 +22°C° 0 mm 1 mps 755 mmHg 73%
23:00 +22°C° 0 mm 1 mps 755 mmHg 73%

28 July, Wednesday

Time Temperature Precipitation Wind Pressure Humidity
00:00 +22°C° 0 mm 1 mps 755 mmHg 73%
01:00 +22°C° 0 mm 1 mps 755 mmHg 73%
02:00 +21°C° 0 mm 1 mps 755 mmHg 74%
03:00 +20°C° 0 mm 2 mps 755 mmHg 75%
04:00 +20°C° 0 mm 2 mps 755 mmHg 76%
05:00 +20°C° 0 mm 2 mps 755 mmHg 76%
06:00 +20°C° 0 mm 3 mps 755 mmHg 77%
07:00 +21°C° 0 mm 4 mps 756 mmHg 77%
08:00 +21°C° 0.1 mm 3 mps 756 mmHg 77%
09:00 +21°C° 0.1 mm 3 mps 756 mmHg 76%
10:00 +21°C° 0.1 mm 3 mps 756 mmHg 76%
11:00 +23°C° 0 mm 4 mps 756 mmHg 67%
12:00 +26°C° 0 mm 4 mps 756 mmHg 58%
13:00 +27°C° 0 mm 4 mps 756 mmHg 49%
14:00 +27°C° 0 mm 4 mps 756 mmHg 51%
15:00 +27°C° 0 mm 3 mps 755 mmHg 54%
16:00 +27°C° 0 mm 2 mps 755 mmHg 56%
17:00 +26°C° 0 mm 2 mps 755 mmHg 58%
18:00 +25°C° 0 mm 2 mps 755 mmHg 60%
19:00 +24°C° 0 mm 2 mps 755 mmHg 62%
20:00 +24°C° 0 mm 2 mps 756 mmHg 62%
21:00 +23°C° 0 mm 2 mps 756 mmHg 61%
22:00 +21°C° 0 mm 2 mps 756 mmHg 61%
23:00 +21°C° 0 mm 2 mps 756 mmHg 63%
Show more